TimeCDT,TemperatureF,Dew PointF,Humidity,Sea Level PressureIn,VisibilityMPH,Wind Direction,Wind SpeedMPH,Gust SpeedMPH,PrecipitationIn,Events,Conditions,WindDirDegrees,DateUTC
12:15 AM,29.1,11.1,47,29.99,10.0,WNW,6.9,-,N/A,,Clear,300,2013-03-21 05:15:00
12:35 AM,28.4,11.8,50,29.99,10.0,WNW,9.2,-,N/A,,Scattered Clouds,290,2013-03-21 05:35:00
1:15 AM,28.2,11.1,49,29.99,10.0,NW,6.9,-,N/A,,Overcast,320,2013-03-21 06:15:00
1:35 AM,27.7,12.0,52,29.98,10.0,NNW,5.8,-,N/A,,Overcast,330,2013-03-21 06:35:00
1:55 AM,27.1,12.2,53,29.97,10.0,North,8.1,-,N/A,,Overcast,360,2013-03-21 06:55:00
2:15 AM,26.4,12.0,55,29.97,10.0,NW,4.6,-,N/A,,Overcast,320,2013-03-21 07:15:00
2:35 AM,26.4,11.5,53,29.97,10.0,North,8.1,-,N/A,,Overcast,360,2013-03-21 07:35:00
2:55 AM,26.6,11.5,53,29.97,10.0,North,8.1,-,N/A,,Overcast,360,2013-03-21 07:55:00
3:15 AM,26.1,11.1,53,29.97,10.0,North,9.2,18.4,N/A,,Overcast,360,2013-03-21 08:15:00
3:35 AM,25.5,10.6,53,29.96,10.0,North,9.2,-,N/A,,Overcast,360,2013-03-21 08:35:00
3:55 AM,25.5,9.5,51,29.96,10.0,North,9.2,-,N/A,,Overcast,350,2013-03-21 08:55:00
4:15 AM,25.3,9.5,51,29.96,10.0,North,8.1,-,N/A,,Overcast,360,2013-03-21 09:15:00
4:35 AM,24.4,7.2,48,29.96,10.0,North,9.2,16.1,N/A,,Overcast,350,2013-03-21 09:35:00
4:55 AM,23.9,5.9,46,29.95,10.0,North,6.9,-,N/A,,Scattered Clouds,350,2013-03-21 09:55:00
5:15 AM,23.4,7.2,50,29.96,10.0,WNW,5.8,-,N/A,,Clear,300,2013-03-21 10:15:00
5:35 AM,23.5,8.1,52,29.96,10.0,NNW,8.1,-,N/A,,Clear,330,2013-03-21 10:35:00
5:55 AM,22.1,9.0,57,29.96,10.0,Calm,Calm,-,N/A,,Clear,0,2013-03-21 10:55:00
6:15 AM,22.8,9.3,56,29.96,10.0,NW,3.5,-,N/A,,Clear,310,2013-03-21 11:15:00
6:35 AM,22.5,10.2,59,29.96,10.0,WNW,3.5,-,N/A,,Clear,290,2013-03-21 11:35:00
6:55 AM,22.5,10.4,60,29.96,10.0,West,3.5,-,N/A,,Clear,280,2013-03-21 11:55:00
7:15 AM,23.0,10.2,58,29.97,10.0,West,5.8,-,N/A,,Clear,280,2013-03-21 12:15:00
7:35 AM,23.5,9.5,55,29.96,10.0,WNW,3.5,-,N/A,,Clear,300,2013-03-21 12:35:00
7:55 AM,24.3,9.5,53,29.97,10.0,NW,9.2,-,N/A,,Clear,320,2013-03-21 12:55:00
8:15 AM,24.8,9.1,51,29.98,10.0,NW,6.9,-,N/A,,Clear,320,2013-03-21 13:15:00
8:35 AM,26.1,9.7,50,29.98,10.0,NNW,8.1,-,N/A,,Scattered Clouds,340,2013-03-21 13:35:00
8:55 AM,26.6,9.5,49,29.97,10.0,North,8.1,-,N/A,,Mostly Cloudy,360,2013-03-21 13:55:00
9:15 AM,27.3,8.8,46,29.97,10.0,NW,4.6,9.2,N/A,,Mostly Cloudy,310,2013-03-21 14:15:00
9:35 AM,27.5,8.8,45,29.98,10.0,NNW,10.4,-,N/A,,Mostly Cloudy,330,2013-03-21 14:35:00
9:55 AM,28.6,8.6,43,29.99,10.0,NW,9.2,-,N/A,,Scattered Clouds,320,2013-03-21 14:55:00
10:15 AM,29.5,7.5,40,29.99,10.0,West,10.4,20.7,N/A,,Mostly Cloudy,280,2013-03-21 15:15:00
10:35 AM,29.8,9.3,42,29.99,10.0,WNW,6.9,-,N/A,,Mostly Cloudy,300,2013-03-21 15:35:00
10:55 AM,30.4,8.1,39,29.99,10.0,NNW,13.8,19.6,N/A,,Scattered Clouds,340,2013-03-21 15:55:00
11:35 AM,31.6,8.8,38,29.99,10.0,NW,10.4,20.7,N/A,,Mostly Cloudy,320,2013-03-21 16:35:00
11:55 AM,32.0,8.8,38,29.98,10.0,West,11.5,23.0,N/A,,Mostly Cloudy,270,2013-03-21 16:55:00
12:15 PM,31.3,8.8,39,29.98,10.0,NW,6.9,-,N/A,,Mostly Cloudy,320,2013-03-21 17:15:00
12:35 PM,33.1,9.0,37,29.98,10.0,NNW,13.8,19.6,N/A,,Overcast,330,2013-03-21 17:35:00
12:55 PM,33.6,10.2,38,29.97,10.0,NNW,10.4,17.3,N/A,,Mostly Cloudy,340,2013-03-21 17:55:00
1:15 PM,33.6,10.2,38,29.97,10.0,NNW,10.4,17.3,N/A,,Mostly Cloudy,330,2013-03-21 18:15:00
1:35 PM,34.3,10.4,37,29.97,10.0,NW,10.4,20.7,N/A,,Mostly Cloudy,320,2013-03-21 18:35:00
1:55 PM,35.6,10.4,35,29.96,10.0,WNW,10.4,19.6,N/A,,Mostly Cloudy,290,2013-03-21 18:55:00
2:15 PM,35.8,10.2,35,29.97,10.0,WNW,18.4,21.9,N/A,,Scattered Clouds,300,2013-03-21 19:15:00
2:35 PM,35.4,9.3,34,29.96,10.0,WNW,12.7,19.6,N/A,,Scattered Clouds,300,2013-03-21 19:35:00
2:55 PM,36.7,9.7,33,29.96,10.0,West,11.5,18.4,N/A,,Scattered Clouds,280,2013-03-21 19:55:00
3:15 PM,35.2,10.4,36,29.96,10.0,NW,15.0,-,N/A,,Scattered Clouds,320,2013-03-21 20:15:00
3:35 PM,37.0,10.6,34,29.96,10.0,WNW,12.7,19.6,N/A,,Mostly Cloudy,290,2013-03-21 20:35:00
3:55 PM,37.2,10.0,33,29.96,10.0,WNW,6.9,-,N/A,,Mostly Cloudy,290,2013-03-21 20:55:00
4:15 PM,36.3,10.8,35,29.96,10.0,WNW,10.4,-,N/A,,Scattered Clouds,290,2013-03-21 21:15:00
4:35 PM,37.0,10.6,34,29.96,10.0,WNW,11.5,17.3,N/A,,Mostly Cloudy,300,2013-03-21 21:35:00
4:55 PM,36.5,10.4,34,29.96,10.0,WNW,10.4,16.1,N/A,,Mostly Cloudy,300,2013-03-21 21:55:00
5:15 PM,36.1,9.9,34,29.96,10.0,West,9.2,-,N/A,,Scattered Clouds,270,2013-03-21 22:15:00
5:35 PM,35.6,9.7,34,29.96,10.0,NW,9.2,-,N/A,,Clear,310,2013-03-21 22:35:00
5:55 PM,35.1,9.9,35,29.96,10.0,NNW,4.6,-,N/A,,Clear,340,2013-03-21 22:55:00
6:15 PM,34.0,9.3,36,29.96,10.0,Calm,Calm,-,N/A,,Clear,0,2013-03-21 23:15:00
6:35 PM,32.9,10.6,40,29.96,10.0,North,4.6,-,N/A,,Clear,350,2013-03-21 23:35:00
6:55 PM,32.2,10.4,40,29.97,10.0,North,3.5,-,N/A,,Clear,350,2013-03-21 23:55:00
7:15 PM,32.0,10.2,40,29.97,10.0,NNW,4.6,-,N/A,,Clear,340,2013-03-22 00:15:00
7:35 PM,31.6,11.1,43,29.98,10.0,Calm,Calm,-,N/A,,Clear,0,2013-03-22 00:35:00
7:55 PM,30.9,11.3,44,29.98,10.0,North,4.6,-,N/A,,Clear,360,2013-03-22 00:55:00
8:15 PM,30.2,11.3,45,29.99,10.0,Calm,Calm,-,N/A,,Clear,0,2013-03-22 01:15:00
8:35 PM,30.2,10.9,45,29.99,10.0,Calm,Calm,-,N/A,,Clear,0,2013-03-22 01:35:00
8:55 PM,29.8,11.1,46,29.99,10.0,Calm,Calm,-,N/A,,Clear,0,2013-03-22 01:55:00
9:15 PM,29.7,11.7,47,30.00,10.0,Calm,Calm,-,N/A,,Clear,0,2013-03-22 02:15:00
10:15 PM,28.4,11.3,49,30.02,10.0,NNW,3.5,-,N/A,,Clear,340,2013-03-22 03:15:00
10:35 PM,28.4,10.9,48,30.02,10.0,NNW,3.5,-,N/A,,Clear,340,2013-03-22 03:35:00
10:55 PM,27.9,11.1,50,30.02,10.0,North,3.5,-,N/A,,Clear,350,2013-03-22 03:55:00
11:15 PM,26.8,12.6,55,30.03,10.0,Calm,Calm,-,N/A,,Clear,0,2013-03-22 04:15:00
11:35 PM,26.2,14.0,60,30.03,10.0,Calm,Calm,-,N/A,,Clear,0,2013-03-22 04:35:00
11:55 PM,25.7,14.4,62,30.03,10.0,Calm,Calm,-,N/A,,Clear,0,2013-03-22 04:55:00